Hauptseite
METAR-TAF:

METAR-TAF

Flughäfen :

RAF Boulmer

Boulmer, England

Breite: 55-25-19N, Länge: 1-36-12W, Höhe: 24 m

Beobachtung

Neuester Wetterbericht von vor 27 Minuten, um 03:50 UTC
Wind 9 kt aus West/Südwest
Temperatur 0°C
Luftfeuchtigkeit 80%
Luftdruck 1022 hPa
Sichtweite 10 km oder mehr

METAR: EGQM 210350Z AUTO 25009KT 9999 NCD 00/M03 Q1022

Zeit: 04:17 (04:17 UTC)


TAF: fehlend

Wetterbeobachtungen und Prognosen von mehr als 4000 Flughäfen (METAR und TAF Bericht).

Die verfügbaren Stationen werden durch gelbe und rote Markierungen auf der Karte dargestellt.

Führen Sie die Maus auf sie, um den Namen der Station zu sehen.

Darauf klicken, um die Beobachtung von Wetterbeobachtungen und Prognosen zu sehen.

Um die Karte zu ändern : klicken Sie auf den grünen Tasten mit einem schwarzen Kreuz Zum Vergrößern, auf den grünen Button mit einem Gedankenstrich zu verkleinern, oder auf die grünen Pfeile für benachbarte Karten.


METAR-TAF: